Tracking 26253 objects as of 2-Oct-2022
HD Live streaming from Space Station
objects crossing your sky now

IRIDIUM 121

Track IRIDIUM 121 now!
10-day predictions
IRIDIUM 121 is classified as:


NORAD ID: 42812
Int'l Code: 2017-039K
Perigee: 783.3 km
Apogee: 786.4 km
Inclination: 86.4 °
Period: 100.4 minutes
Semi major axis: 7155 km
RCS: Unknown
Launch date: June 25, 2017
Source: United States (US)
Launch site: AIR FORCE WESTERN TEST RANGE (AFWTR)
aabbcc
Your satellite tracking list
Your tracking list is empty




NASA's NSSDC Master Catalog

Two Line Element Set (TLE):
1 42812U 17039K   22274.89095784  .00000357  00000-0  12044-3 0  9993
2 42812  86.4044 199.5994 0002154  88.1284 272.0159 14.34215881275719
Source of the keplerian elements: AFSPC